Regional Weather Roundup
Issued by NWS

Home | Current Version | Previous Version | Text Only | Print | Product List | Glossary On
Versions: 1 2 3 4 5 6 7 8 9 10 11 12 13 14 15 16 17 18 19 20 21 22 23 24 25 26 27 28 29 30 31 32 33 34 35 36 37 38 39 40 41 42 43 44 45 46 47 48 49 50
000
ASUS43 KMPX 251110
RWRMN
WEATHER ROUNDUP FOR MINNESOTA
NATIONAL WEATHER SERVICE TWIN CITIES/CHANHASSEN MN
600 AM CDT SUN OCT 25 2020


NOTE: "FAIR" INDICATES FEW OR NO CLOUDS BELOW 12,000 FEET WITH NO
SIGNIFICANT WEATHER AND/OR OBSTRUCTIONS TO VISIBILITY. N/A MEANS
CURRENT SKY AND/OR WEATHER CONDITIONS ARE NOT AVAILABLE.

MNZ060>063-068>070-251200-
   Twin Cities Metro

CITY           SKY/WX    TMP DP  RH WIND       PRES   REMARKS
TWIN CITIES    CLOUDY    27  20  75 N7        30.36S WCI  19
ST PAUL        CLOUDY    29  20  69 N7        30.38S WCI  22
CRYSTAL        CLOUDY    27  18  69 N7        30.36S WCI  19
BLAINE         MOCLDY    28  21  74 N7        30.36F WCI  21
LAKEVILLE      MIX PCPN  27  19  74 N3        30.35S
EDEN PRAIRIE   CLOUDY    27  20  75 N6        30.35F WCI  20
SOUTH ST PAUL  MOCLDY    29  20  68 CALM      30.36F
LAKE ELMO      CLOUDY    28  21  74 N3        30.37S
$$
MNZ001>005-007-008-013>017-022>024-027-028-251200-
   Northwest Minnesota

CITY           SKY/WX    TMP DP  RH WIND       PRES   REMARKS
BEMIDJI        CLOUDY    22  18  85 NW7       30.35R WCI  13
HALLOCK        CLOUDY    25  21  86 NW3       30.39S
ROSEAU         CLOUDY    23 N/A N/A W6        30.36S WCI  16
THIEF RVR FALL CLOUDY    23  19  85 W6        30.38S WCI  16
CROOKSTON      CLOUDY   N/A N/A N/A W5        30.41S
FOSSTON        LGT SNOW  21  18  86 NW5       30.38S WCI  15
DETROIT LAKES  LGT SNOW  25  23  93 N5        30.37S WCI  19
MOORHEAD       LGT SNOW  25  19  80 NW8       30.41S WCI  16
PARK RAPIDS    LGT SNOW  21  17  84 NW5       30.34F FOG     WCI  15
MAHNOMEN       LGT SNOW  23  21  94 NW5       30.37F WCI  16
$$
MNZ006-009>011-018-025>026-251200-
   North Central Minnesota

CITY           SKY/WX    TMP DP  RH WIND       PRES   REMARKS
BAUDETTE       CLOUDY    23  18  81 W9        30.33F WCI  13
FLAG ISLAND      N/A     25  18  74 W14       30.32S WCI  13
INTL FALLS     CLOUDY    23  18  81 W5        30.31F WCI  17
WASKISH          N/A     25  19  80 NW7       30.34S WCI  17
BIG FORK       CLOUDY    21  18  86 CALM      30.37R
LONGVILLE      LGT SNOW  25  18  74 SW5       30.35R WCI  19
GRAND RAPIDS   CLOUDY    20  17  88 CALM      30.35S
CRANE LAKE     CLOUDY    21  19  93 CALM      30.35S
ORR            MOCLDY    19  16  86 CALM      30.29F
COOK           MOCLDY    16  16 100 CALM      30.31S
WALKER         CLOUDY    22  18  83 NW5       30.35R WCI  16
$$
MNZ012-019>021-037-251200-
   Northeast Minnesota

CITY           SKY/WX    TMP DP  RH WIND       PRES   REMARKS
DULUTH         CLOUDY    21  15  78 NW3       30.32R
ELY            MOCLDY    14  12  92 CALM      30.30F
HIBBING        CLOUDY    15  12  88 CALM      30.32F
EVELETH        CLOUDY    18  16  93 CALM      30.32F
DULUTH HARBOR  CLOUDY    27  18  69 W6        30.38R WCI  20
TWO HARBORS    MOCLDY    21  16  79 NW3       30.32S
SILVER BAY     PTCLDY    18  12  79 CALM      30.33S
GRAND MARAIS     N/A     27  18  69 N9G17     30.33R WCI  18
G MARAIS ARPRT PTCLDY    16  12  86 NW3       30.27R
$$
MNZ029>031-032-039>041-046>048-054>057-064-251200-
   West Central Minnesota

CITY           SKY/WX    TMP DP  RH WIND       PRES   REMARKS
FERGUS FALLS   PTCLDY    21  19  93 NW5       30.42S WCI  15
WHEATON        LGT SNOW  21  19  93 NW7       30.42S WCI  13
MORRIS         LGT SNOW  21  21 100 N8        30.38F WCI  12
ALEXANDRIA     CLOUDY    22  20  92 NE3       30.36S FOG
ELBOW LAKE     LGT SNOW  22  22  98 W3        30.39R
WADENA         CLOUDY    21  21 100 CALM      30.36S
GLENWOOD       LGT SNOW N/A N/A N/A NE6       30.36S
APPLETON       LGT SNOW  25  21  86 N8        30.38S WCI  16
BENSON         LGT SNOW  25  21  86 NE3       30.39R
ORTONVILLE     LGT SNOW  23  21  93 N10       30.38S WCI  12
MADISON        CLOUDY    27  23  86 N8        30.39S WCI  18
WILLMAR        LGT SNOW  27  25  93 N5        30.38S WCI  21
$$
MNZ033>034-036-042>043-049>051-058-059-251200-
   Central Minnesota

CITY           SKY/WX    TMP DP  RH WIND       PRES   REMARKS
ST CLOUD       FLURRIES  24  20  84 MISG      30.37F
SAUK CENTRE    MIX PCPN  22  21  95 CALM      30.37R
PAYNESVILLE    CLOUDY    25  25 100 NE5       30.37S FOG     WCI  19
AITKIN         MOCLDY    21  18  86 CALM      30.34S
PINE RIVER     LGT SNOW  25  21  86 CALM      30.37S
BRAINERD       LGT SNOW  23  19  85 SW3       30.36S FOG
STAPLES        MIX PCPN  23  21  93 CALM      30.36S
LONG PRAIRIE   LGT SNOW  21  21 100 CALM      30.37S
LITTLE FALLS   LGT SNOW  23  19  86 CALM      30.38S
CAMP RIPLEY    LGT SNOW  22  20  89 CALM      30.39R
LITCHFIELD     MIX PCPN  27  25  93 NE6       30.36F WCI  20
BUFFALO        LGT SNOW  25  21  83 MISG      30.38F
HUTCHINSON     FLURRIES  27  24  91 NE9       30.36F WCI  17
$$
MNZ037-044-045-052-053-251200-
   East Central Minnesota

CITY           SKY/WX    TMP DP  RH WIND       PRES   REMARKS
PRINCETON      FLURRIES  27  19  74 CALM      30.37F
MORA           MOCLDY    27  19  74 CALM      30.38F
CAMBRIDGE      LGT SNOW  27  18  69 CALM      30.38S
RUSH CITY      CLOUDY    26  18  74 N3        30.38S
MOOSE LAKE     CLOUDY    25  18  74 CALM      30.33F
HINCKLEY       CLOUDY    27  19  74 CALM      30.36F
CLOQUET        CLOUDY    21  16  79 NW3       30.33S
MCGREGOR       CLOUDY    23  19  86 NW3       30.34F
$$
MNZ071>073-080-081-089-090-097-098-251200-
   Southwest Minnesota

CITY           SKY/WX    TMP DP  RH WIND       PRES   REMARKS
MONTEVIDEO     LGT SNOW  25  21  86 NE6       30.37S WCI  18
GRANITE FALLS  LGT SNOW  27  25  93 N6        30.38R WCI  20
CANBY          LGT SNOW  24  23  94 N7        30.38S WCI  16
MARSHALL       FLURRIES  23  22  96 N7        30.36R WCI  15
OLIVIA         LGT SNOW  25  23  93 NE8       30.35S WCI  16
PIPESTONE        N/A     21  19  93 MISG      30.30R
WINDOM         LGT SNOW  21  21 100 CALM      30.30F
WORTHINGTON    FLURRIES  22  21  96 NE13      30.30R WCI  10
JACKSON        MIX PCPN  25  23  93 NE7       30.30F WCI  17
TRACY          LGT SNOW  24  21  87 N6        30.34S WCI  17
SLAYTON        CLOUDY    22  20  93 N6        30.31S FOG     WCI  15
$$
MNZ065>067-074>077-082>085-091>093-251200-
   South Central Minnesota

CITY           SKY/WX    TMP DP  RH WIND       PRES   REMARKS
MANKATO        FLURRIES  25  24  96 N8        30.35F WCI  16
NEW ULM        FLURRIES  25  21  86 N3        30.34F
ST JAMES         N/A     25  23  93 N7        30.33S WCI  17
FAIRMONT       FLURRIES  25  23  92 N9        30.33S WCI  15
GLENCOE        LGT SNOW  26  23  88 N3        30.36S
FARIBAULT      LGT SNOW  27  25  93 N3        30.34S
OWATONNA       CLOUDY    27  21  80 N7        30.32F WCI  19
WASECA         CLOUDY    27  23  86 N8        30.34S WCI  18
ALBERT LEA     CLOUDY    27  25  93 N8        30.31R WCI  18
$$
MNZ078>079-086>088-094>096-251200-
   Southeast Minnesota

CITY           SKY/WX    TMP DP  RH WIND       PRES   REMARKS
ROCHESTER      CLOUDY    27  20  75 N9        30.31S WCI  18
RED WING       LGT SNOW  28  21  74 CALM      30.35S
STANTON        LGT SNOW  27  24  89 N3        30.34F
DODGE CENTER   CLOUDY    27  21  80 N7        30.31S WCI  19
WINONA         CLOUDY    32  23  69 CALM      30.35R
AUSTIN         CLOUDY    27  25  93 N3        30.31R
PRESTON        CLOUDY    27  20  75 N6        30.30S WCI  21
$$
ABBREVIATIONS USED IN REMARKS
   TC - TEMPERATURES IN CELSIUS
  WCI - WIND CHILL INDEX
   HX - HEAT INDEX
  VSB - VISIBILITY
$$




USA.gov is the U.S. government's official web portal to all federal, state and local government web resources and services.